CAPE
1105 955 411 653 916 1384 1342 1562 1520 1337 893 790 813 789 850 758 1286 1500 1667 1222 1549 1340 862 1140 1077 982 984 788 977 1022 1105 926 972 750 651 899 910 1113 1001 1177 714 1287 1343 582 635 551 550 374 818 281 445 928 1040 819 656 458 440 345 337 380 428 632 866
570 629 693 552 752 1229 1406 1807 1197 914 846 879 817 862 705 719 926 925 988 935 1086 714 436 1111 1210 940 979 1022 1154 1325 1171 922 943 834 1144 1089 960 945 942 1126 697 855 963 917 1036 657 1151 518 226 402 799 786 761 578 372 361 310 248 258 340 340 402 585
686 667 490 582 1004 1227 1713 927 930 934 998 949 809 757 748 660 704 758 645 600 617 382 336 297 380 1138 1416 1459 1466 786 1061 942 1416 1130 1001 1234 1421 1063 766 550 885 771 799 1105 1120 1229 816 800 512 238 353 543 444 290 347 276 314 360 224 270 351 432 534
973 666 790 736 1299 1582 1271 927 905 914 892 842 912 822 716 656 589 550 552 499 447 321 207 276 299 226 352 502 518 728 1336 862 870 1002 1191 1592 1283 1172 992 1127 1430 984 1136 424 612 1036 438 317 521 736 578 531 376 260 313 227 271 250 320 293 359 163 560
752 845 765 930 955 1112 946 914 831 871 822 882 859 789 657 653 603 571 481 487 345 344 299 277 176 128 171 205 328 461 525 1456 1349 1418 1003 1276 1133 918 1164 1247 1094 1027 509 1010 770 544 570 630 630 394 425 213 400 388 243 305 292 395 412 308 212 238 348
546 860 738 893 924 900 897 881 832 875 728 803 700 626 592 576 462 511 434 312 298 307 266 237 227 277 204 231 308 377 500 1078 1347 1430 1381 1201 947 952 1255 1371 1050 1119 1053 1498 1262 819 924 376 796 484 439 486 399 258 196 266 144 142 319 218 164 108 33
559 901 1110 680 825 714 710 657 574 482 468 560 443 300 382 400 373 311 259 229 153 189 221 279 230 140 297 131 260 388 714 1458 1496 1423 1105 1223 1140 1013 814 1013 1032 1146 1310 996 899 827 600 518 547 480 414 290 288 151 71 33 11 17 33 99 90 81 32
494 778 900 688 626 587 533 500 550 461 450 552 387 334 335 362 340 232 271 244 225 258 221 196 237 400 212 158 248 448 792 1313 1529 1343 1291 1361 1015 1048 854 899 1019 704 1043 1043 440 1342 380 628 572 548 522 398 121 13 8 0 1 1 5 21 30 61 35
871 1015 1047 534 673 775 747 552 638 534 558 568 514 473 336 394 288 278 247 244 216 195 200 246 196 188 235 252 331 376 352 316 778 695 798 994 1026 1290 1126 1220 688 790 755 756 657 876 288 530 559 539 491 260 15 4 0 1 6 1 1 2 26 8 0
971 1113 859 830 855 718 640 569 501 494 452 460 479 482 391 280 297 267 190 177 200 196 244 224 173 139 174 235 326 289 224 212 207 193 212 278 530 785 1304 1250 974 1019 764 647 602 566 651 454 214 50 7 4 35 4 1 3 8 2 14 2 0 0 1
904 790 886 967 773 510 479 546 501 406 320 467 577 441 347 255 307 102 129 124 233 196 207 129 62 75 98 103 121 144 172 187 164 126 163 167 285 568 853 878 723 537 823 649 678 769 796 388 80 47 0 0 3 0 4 9 7 4 0 2 2 1 0
704 705 793 731 458 459 476 479 510 523 487 513 490 376 343 268 192 42 93 185 185 182 170 64 26 31 48 65 66 64 54 45 10 18 37 167 310 410 782 1172 802 714 865 910 921 935 715 146 29 3 1 2 10 6 12 2 3 1 3 4 0 0 0
546 574 425 285 288 431 410 472 409 433 407 327 280 294 290 218 92 53 32 74 89 154 164 39 18 30 27 29 8 3 5 0 0 0 0 35 120 349 973 1260 1164 944 979 1066 950 696 172 3 2 4 7 0 0 16 55 6 2 3 0 0 0 0 0
659 576 379 292 495 533 495 316 389 349 237 242 277 275 371 231 74 44 18 6 19 41 111 68 38 25 21 2 0 0 0 0 0 0 2 37 25 85 194 458 1005 1236 1272 843 670 329 10 0 0 0 0 0 0 0 4 11 7 0 0 0 0 0 0
643 559 553 467 568 520 602 468 334 191 124 284 319 303 348 128 68 12 0 0 0 0 23 132 66 3 6 10 0 0 0 0 0 0 0 22 68 92 197 530 840 1268 1062 533 343 78 6 0 0 0 0 0 0 0 0 0 0 0 0 0 0 0 0
658 546 488 465 409 241 508 404 224 186 153 325 267 241 209 60 33 10 0 0 0 0 0 69 57 16 4 0 0 0 0 0 0 0 0 3 18 69 131 289 1068 855 703 394 126 137 42 0 0 0 3 0 1 0 0 1 0 0 0 0 0 0 0
910 562 305 374 410 339 438 405 239 126 75 162 203 203 138 53 66 16 0 0 0 0 0 10 13 8 0 0 0 0 0 0 0 0 0 0 13 45 97 160 390 392 320 124 73 66 36 50 0 3 0 3 16 0 0 0 0 0 0 0 0 0 0
870 544 437 557 591 522 506 383 230 107 97 32 176 116 112 154 143 16 12 0 0 0 0 0 0 0 0 0 0 0 0 0 0 0 2 0 8 42 59 82 96 130 173 86 83 49 72 89 4 80 97 71 37 33 48 9 4 0 0 0 0 0 0
643 891 469 471 559 514 511 361 260 196 122 11 123 120 225 97 99 46 6 0 0 0 0 0 0 0 0 2 1 1 5 10 7 1 0 0 4 7 31 57 103 170 151 259 76 230 216 49 22 88 39 9 39 57 69 38 22 19 2 0 0 0 0
820 1050 1496 484 458 393 282 317 163 198 120 54 137 30 44 124 18 47 0 0 0 0 0 0 0 3 10 11 12 9 9 14 7 10 14 11 10 10 7 13 23 41 69 126 175 233 141 99 83 38 20 21 2 9 23 52 45 29 52 28 7 0 0
749 870 924 836 514 372 408 389 176 134 71 80 49 0 3 36 13 27 0 0 0 0 0 0 1 9 7 13 27 43 34 38 39 70 112 95 116 109 69 20 20 2 21 108 209 121 74 70 43 26 8 18 20 15 43 46 75 74 115 133 42 0 1
637 541 672 787 726 415 338 310 171 71 40 97 7 2 0 0 0 0 1 0 0 0 0 5 2 2 4 6 23 40 54 52 94 155 255 273 236 221 195 257 226 356 284 21 0 32 32 32 424 470 319 400 194 137 137 111 348 140 82 109 117 12 0
416 380 485 533 518 560 363 269 96 21 8 7 0 0 0 0 0 60 34 10 13 43 28 387 0 0 5 422 211 97 148 167 175 279 233 396 246 235 300 254 790 192 0 0 0 0 0 0 0 446 370 477 499 460 306 236 152 230 271 233 226 168 2
253 250 308 280 452 454 396 372 375 298 77 11 8 0 0 0 0 13 62 236 230 158 385 214 0 0 0 0 507 340 147 212 204 270 298 434 566 356 520 456 592 590 159 0 117 0 0 0 0 0 0 0 0 66 242 240 255 143 508 395 689 501 293
230 212 218 74 96 47 23 25 46 130 250 252 162 149 96 29 13 17 15 39 114 111 421 43 0 0 0 0 0 432 498 463 497 510 507 462 546 659 580 655 816 1098 842 408 412 336 265 182 0 0 0 0 0 0 0 3 34 148 192 365 241 423 271
186 215 147 120 0 0 1 3 13 33 78 151 155 114 63 123 297 271 250 153 165 237 238 0 0 0 0 0 0 195 348 579 694 666 630 680 597 489 519 627 694 948 635 683 556 540 812 588 491 381 18 0 0 0 0 0 0 0 0 2 52 270 109
165 154 68 28 23 2 5 12 5 45 114 148 126 163 117 248 226 162 173 198 511 408 196 0 0 0 0 0 0 25 304 316 806 836 646 605 668 577 596 636 564 668 918 1150 885 767 613 640 772 540 423 262 336 416 0 0 0 0 0 1 16 42 180
16 28 16 1 10 2 3 4 0 19 84 282 250 203 199 281 204 126 126 162 252 234 108 10 0 0 0 0 0 0 176 658 745 1055 1015 897 647 824 823 674 706 531 558 776 1089 864 959 882 581 641 778 929 763 644 659 495 300 256 144 137 153 149 207
21 15 9 3 12 16 3 12 7 1 25 83 148 282 256 303 221 258 229 288 185 252 108 46 28 0 2 44 34 44 143 517 793 586 421 320 83 486 845 968 812 737 613 681 748 465 569 990 586 384 383 415 487 530 577 218 169 114 0 0 16 239 564
5 15 10 17 16 18 55 2 6 5 19 38 82 218 238 239 255 266 299 99 98 207 106 46 26 0 44 48 43 59 167 420 420 310 432 498 608 865 734 717 905 735 856 661 529 519 431 428 671 477 355 333 317 360 578 0 128 78 0 0 0 0 0
22 12 3 4 11 24 9 113 347 265 25 35 103 143 178 208 179 129 111 84 90 120 139 96 61 49 41 51 38 49 134 262 348 480 521 616 681 628 511 352 302 798 1168 422 322 611 495 358 562 445 336 484 398 163 325 16 30 0 0 0 0 0 0
5 4 3 4 3 0 0 0 12 44 173 224 124 113 77 143 80 95 74 66 95 116 98 87 77 63 59 65 65 62 69 116 357 336 204 343 431 491 250 222 99 68 140 17 182 302 358 242 326 442 438 345 317 313 484 172 37 0 0 0 0 0 0
1 0 1 1 0 4 0 1 2 0 40 113 109 7 7 17 35 54 50 3 8 8 7 2 9 50 3 51 56 61 48 4 332 154 102 36 76 66 37 0 2 47 23 175 126 81 49 62 11 210 381 294 387 391 229 221 142 0 0 0 0 0 0
2 0 0 0 1 3 6 7 6 2 2 0 0 0 6 1 2 6 5 15 1 8 9 14 17 41 39 40 40 29 0 0 0 2 44 0 54 46 116 8 0 45 0 0 2 0 0 0 0 0 46 480 186 106 124 185 20 0 4 0 0 0 0
1 2 2 0 1 0 0 0 0 0 0 0 2 1 2 2 4 2 7 0 0 0 1 1 0 0 0 0 0 0 0 0 0 0 0 13 19 1 2 18 0 0 0 0 0 0 0 0 0 0 10 113 165 112 90 113 87 0 2 2 3 0 0
0 0 0 0 0 0 0 0 1 0 0 1 1 1 2 2 2 2 2 1 0 0 0 0 0 0 0 0 0 0 0 0 0 0 0 0 0 13 53 0 0 0 0 0 0 0 0 0 0 0 40 156 211 205 149 115 31 2 0 8 3 0 1
1 2 1 0 0 0 0 0 0 0 0 0 0 0 0 0 0 0 0 0 1 2 3 2 3 3 0 0 0 0 0 0 0 0 0 0 0 0 0 0 0 0 0 0 0 0 0 0 0 0 0 0 0 145 179 168 38 3 5 30 4 18 4
Wind_Speed
18 20 16 15 16 20 24 24 23 20 20 19 18 18 17 17 17 17 17 17 17 17 17 16 16 17 15 17 15 19 19 15 13 12 10 12 13 14 12 14 15 15 13 15 13 13 15 17 15 15 17 16 17 17 17 17 17 16 16 14 15 14 13
17 18 16 17 15 18 23 23 20 19 19 19 18 18 17 18 17 18 18 17 17 18 16 17 18 17 18 19 17 16 18 14 14 14 13 12 12 13 14 12 14 14 13 16 15 14 14 17 15 16 18 17 17 16 17 17 17 17 17 17 16 16 15
18 19 17 16 15 21 21 22 20 19 18 18 19 18 19 20 19 20 20 20 20 19 18 21 21 22 21 19 19 16 16 15 13 14 13 12 13 14 13 11 13 16 14 18 16 16 17 14 15 17 19 19 17 17 17 17 19 20 20 19 18 18 17
17 18 18 17 19 18 21 21 20 19 18 19 19 20 20 22 21 22 22 22 22 21 21 23 21 21 20 19 17 16 17 15 12 13 13 14 13 13 11 13 15 14 16 17 12 16 18 14 15 18 18 16 20 19 18 19 21 22 22 20 19 19 17
17 18 19 19 19 20 21 20 19 19 19 19 20 21 21 22 20 22 22 23 23 22 22 21 19 18 17 18 16 16 15 14 14 14 15 14 13 12 13 14 15 15 16 15 13 12 19 16 21 20 19 18 21 21 21 19 22 23 22 21 20 20 20
15 12 16 18 18 19 20 19 19 18 18 19 19 19 20 20 20 22 21 21 22 21 20 20 18 18 18 17 17 15 15 13 14 14 15 15 14 13 14 15 14 15 17 15 13 11 14 17 21 20 21 20 22 23 22 20 21 23 20 20 20 20 nan
14 14 14 17 18 18 18 20 19 18 18 18 19 19 20 19 21 22 21 21 20 20 19 18 17 16 16 14 16 15 14 16 16 16 15 17 18 18 16 14 13 15 14 16 9 12 16 16 18 20 21 21 22 22 nan nan nan nan nan nan nan nan nan
16 13 17 18 17 20 21 21 20 20 18 18 19 20 21 21 24 22 21 20 19 19 18 16 16 17 16 13 17 16 15 16 17 17 18 18 19 20 17 15 17 15 13 8 14 13 18 16 17 19 19 22 22 nan nan nan nan nan nan nan nan nan nan
14 13 14 17 20 21 22 21 20 19 18 19 20 22 22 23 24 23 20 19 17 17 16 17 16 17 16 16 19 18 18 18 19 19 19 18 18 18 19 19 18 15 13 13 17 13 16 17 18 18 18 20 nan nan nan nan nan nan nan nan nan nan nan
15 16 18 21 22 22 22 21 20 20 20 21 22 22 23 24 24 22 20 18 17 16 17 16 17 19 17 19 20 19 20 20 19 20 19 18 19 18 16 18 21 14 14 16 17 17 18 19 18 nan nan nan nan nan nan nan nan nan nan nan nan nan nan
27 26 24 23 22 22 22 22 20 20 20 21 23 23 23 24 23 21 21 18 17 18 18 18 nan nan nan 21 22 21 22 22 21 20 18 19 18 17 16 16 18 17 19 17 19 22 20 20 nan nan nan nan nan nan nan nan nan nan nan nan nan nan nan
32 28 25 23 24 24 23 23 21 20 22 22 22 23 22 22 21 nan nan 17 17 18 18 nan nan nan nan nan nan nan nan nan nan nan nan 18 17 16 15 16 17 19 19 19 21 23 23 22 nan nan nan nan nan nan nan nan nan nan nan nan nan nan nan
30 29 27 25 24 24 23 24 22 21 21 21 21 22 19 19 nan nan nan nan nan 18 19 nan nan nan nan nan nan nan nan nan nan nan nan nan 18 17 16 18 18 20 19 21 22 23 23 nan nan nan nan nan nan nan nan nan nan nan nan nan nan nan nan
30 30 28 26 24 23 23 23 22 20 19 19 21 20 18 19 nan nan nan nan nan nan 20 nan nan nan nan nan nan nan nan nan nan nan nan nan nan nan 20 19 20 21 21 23 23 24 nan nan nan nan nan nan nan nan nan nan nan nan nan nan nan nan nan
30 30 29 26 25 23 23 22 22 20 18 19 20 20 20 21 nan nan nan nan nan nan nan 20 nan nan nan nan nan nan nan nan nan nan nan nan nan nan 22 21 22 22 23 24 24 nan nan nan nan nan nan nan nan nan nan nan nan nan nan nan nan nan nan
29 30 29 27 25 22 21 21 21 20 18 20 20 20 22 nan nan nan nan nan nan nan nan nan nan nan nan nan nan nan nan nan nan nan nan nan nan nan 24 24 24 24 23 24 21 21 nan nan nan nan nan nan nan nan nan nan nan nan nan nan nan nan nan
30 27 27 26 26 24 23 22 22 20 nan 19 20 20 22 nan nan nan nan nan nan nan nan nan nan nan nan nan nan nan nan nan nan nan nan nan nan nan nan 27 27 26 25 23 nan nan nan nan nan nan nan nan nan nan nan nan nan nan nan nan nan nan nan
25 23 24 26 27 26 24 24 23 20 nan nan 19 20 22 21 21 nan nan nan nan nan nan nan nan nan nan nan nan nan nan nan nan nan nan nan nan nan nan nan nan 30 26 nan nan nan nan nan nan nan nan nan nan nan nan nan nan nan nan nan nan nan nan
20 19 21 25 26 26 25 24 24 22 20 nan 22 21 23 nan nan nan nan nan nan nan nan nan nan nan nan nan nan nan nan nan nan nan nan nan nan nan nan nan 31 30 27 25 nan 20 22 nan nan nan nan nan nan nan nan nan nan nan nan nan nan nan nan
27 27 25 24 26 25 24 24 24 25 23 nan 25 nan nan 25 nan nan nan nan nan nan nan nan nan nan nan nan nan nan nan nan nan nan nan nan nan nan nan nan nan nan nan 24 23 22 22 nan nan nan nan nan nan nan nan nan nan nan nan nan nan nan nan
31 29 30 28 25 25 26 26 25 27 nan nan nan nan nan nan nan nan nan nan nan nan nan nan nan nan nan nan nan nan nan nan nan nan 25 nan 26 25 nan nan nan nan nan 27 28 25 nan nan nan nan nan nan nan nan nan nan nan nan 23 23 nan nan nan
32 32 31 31 29 25 26 26 25 nan nan nan nan nan nan nan nan nan nan nan nan nan nan nan nan nan nan nan nan nan nan nan nan 25 24 25 24 23 23 25 25 30 33 nan nan nan nan nan 26 25 24 25 23 22 21 21 21 22 nan 21 23 nan nan
33 33 32 31 30 31 29 27 nan nan nan nan nan nan nan nan nan nan nan nan nan nan nan 28 nan nan nan 27 22 nan 22 22 22 24 24 24 23 22 23 25 32 35 nan nan nan nan nan nan nan 27 26 26 26 24 22 21 22 23 21 22 23 22 nan
29 26 27 28 28 30 33 33 33 32 nan nan nan nan nan nan nan nan nan 28 29 27 30 31 nan nan nan nan 27 23 24 23 23 24 24 23 23 23 24 25 31 34 34 nan 33 nan nan nan nan nan nan nan nan nan 25 23 23 24 24 27 30 21 20
30 27 26 nan nan nan nan nan nan 35 35 35 33 30 nan nan nan nan nan nan 28 29 33 nan nan nan nan nan nan 25 23 24 25 23 23 24 23 24 26 25 27 30 30 30 29 32 30 30 nan nan nan nan nan nan nan nan nan 25 24 25 26 27 24
32 29 27 25 nan nan nan nan nan nan nan 34 34 34 nan 32 33 31 30 30 29 31 34 nan nan nan nan nan nan 24 22 22 23 23 23 23 23 23 25 25 25 30 26 35 30 28 28 31 31 31 nan nan nan nan nan nan nan nan nan nan nan 26 26
28 27 nan nan nan nan nan nan nan nan 28 30 34 35 35 34 33 32 31 32 31 35 36 nan nan nan nan nan nan nan 21 20 21 21 21 22 23 23 24 25 26 26 26 30 30 27 26 26 31 32 31 29 29 30 nan nan nan nan nan nan nan nan 27
nan nan nan nan nan nan nan nan nan nan nan 24 28 30 31 30 28 28 28 28 31 34 34 nan nan nan nan nan nan nan 22 21 20 20 23 25 20 22 26 24 25 24 25 27 33 33 30 31 27 26 28 30 30 30 31 29 31 32 33 32 29 28 29
nan nan nan nan nan nan nan nan nan nan nan nan 24 24 24 23 22 23 23 23 29 29 29 nan nan nan nan nan nan nan 22 22 21 21 23 24 nan 18 25 26 25 25 24 26 40 35 36 32 29 27 28 29 30 31 34 41 41 42 nan nan nan 38 38
nan nan nan nan nan nan nan nan nan nan nan nan nan 22 22 21 22 23 24 nan nan 28 26 nan nan nan nan nan nan nan 20 22 22 21 23 24 19 24 27 25 24 27 24 35 39 29 34 36 32 29 29 29 29 30 35 nan 47 nan nan nan nan nan nan
nan nan nan nan nan nan nan 24 23 20 nan nan 23 23 23 24 24 25 26 nan nan 26 25 nan nan nan nan nan nan nan 22 21 23 22 22 22 24 27 28 30 28 26 34 40 34 36 38 38 33 30 30 31 31 31 34 nan nan nan nan nan nan nan nan
nan nan nan nan nan nan nan nan nan nan 23 24 27 25 nan 25 nan nan nan nan nan 28 nan nan nan nan nan nan nan nan nan 22 23 22 23 26 28 25 27 37 nan nan 42 nan 44 41 39 37 35 34 34 35 35 36 37 44 nan nan nan nan nan nan nan
nan nan nan nan nan nan nan nan nan nan nan 27 28 nan nan nan nan nan nan nan nan nan nan nan nan nan nan nan nan nan nan nan 28 28 31 nan nan nan nan nan nan nan nan 44 42 nan nan nan nan 38 39 39 40 43 44 46 47 nan nan nan nan nan nan
nan nan nan nan nan nan nan nan nan nan nan nan nan nan nan nan nan nan nan nan nan nan nan nan nan nan nan nan nan nan nan nan nan nan nan nan nan nan 39 nan nan nan nan nan nan nan nan nan nan nan nan 41 47 45 43 43 nan nan nan nan nan nan nan
nan nan nan nan nan nan nan nan nan nan nan nan nan nan nan nan nan nan nan nan nan nan nan nan nan nan nan nan nan nan nan nan nan nan nan nan nan nan nan nan nan nan nan nan nan nan nan nan nan nan nan 49 48 49 nan 45 nan nan nan nan nan nan nan
nan nan nan nan nan nan nan nan nan nan nan nan nan nan nan nan nan nan nan nan nan nan nan nan nan nan nan nan nan nan nan nan nan nan nan nan nan nan nan nan nan nan nan nan nan nan nan nan nan nan nan 50 49 49 50 52 nan nan nan nan nan nan nan
nan nan nan nan nan nan nan nan nan nan nan nan nan nan nan nan nan nan nan nan nan nan nan nan nan nan nan nan nan nan nan nan nan nan nan nan nan nan nan nan nan nan nan nan nan nan nan nan nan nan nan nan nan 56 56 57 nan nan nan nan nan nan nan
Wind_Direction
239 244 240 231 219 238 252 260 263 267 273 274 275 280 281 284 285 284 278 274 270 269 267 264 264 263 257 258 248 249 251 245 242 249 251 262 271 271 271 266 273 273 277 279 280 273 286 290 289 280 283 286 284 280 280 285 282 283 284 283 283 283 281
246 246 237 230 240 246 254 258 263 268 271 272 274 275 279 281 284 281 279 275 272 267 262 257 259 263 262 260 258 255 258 255 258 255 248 248 258 248 273 272 277 280 285 280 282 282 284 290 289 295 290 284 281 278 276 277 279 283 285 284 283 285 286
258 247 242 247 253 256 258 263 264 266 267 269 270 272 273 277 279 281 280 277 272 269 265 263 260 257 256 260 260 261 266 263 262 263 259 255 254 257 248 257 257 269 271 271 277 277 266 260 286 298 295 294 289 285 285 286 288 288 289 292 294 291 288
263 255 250 253 257 260 265 265 264 261 263 265 268 269 272 273 276 278 277 276 271 267 265 264 263 262 259 259 261 266 269 276 267 267 265 254 252 259 267 263 266 259 260 272 271 285 287 286 288 289 290 291 287 285 283 286 291 289 288 289 290 285 285
246 246 250 261 267 269 266 264 260 261 262 265 267 268 271 273 273 273 273 270 268 265 264 262 262 264 262 262 261 262 263 266 266 266 263 261 261 259 262 263 268 267 274 270 272 273 288 297 294 296 295 296 286 280 284 288 286 285 287 287 285 285 284
246 232 251 255 262 263 262 260 258 261 265 266 269 272 270 274 273 271 270 266 263 261 258 259 255 246 251 258 260 264 264 268 265 266 266 271 268 262 261 265 263 271 275 276 259 263 275 288 293 288 284 286 282 282 285 288 285 283 284 286 287 286 nan
253 252 253 261 262 260 259 257 255 255 257 260 265 268 271 272 268 268 266 263 261 259 255 248 250 255 255 259 263 262 269 266 267 270 270 273 277 268 264 263 262 264 269 258 263 283 279 279 279 284 285 282 284 286 nan nan nan nan nan nan nan nan nan
258 255 262 263 265 261 256 256 253 253 254 258 264 265 270 268 266 266 265 262 258 256 251 252 252 251 254 254 261 262 259 265 268 268 267 271 277 282 276 271 265 265 270 291 287 268 288 284 283 285 287 286 285 nan nan nan nan nan nan nan nan nan nan
255 262 261 264 261 262 261 260 257 256 257 261 263 267 270 269 268 266 263 257 253 252 254 256 257 258 256 255 263 265 267 265 266 267 267 268 269 272 278 279 285 293 293 285 282 286 279 281 283 283 284 287 nan nan nan nan nan nan nan nan nan nan nan
278 280 270 268 266 265 263 257 253 249 256 259 264 267 270 270 268 264 257 255 253 253 256 256 255 257 261 265 269 272 271 273 270 266 265 265 263 262 266 271 271 277 275 277 277 274 271 275 284 nan nan nan nan nan nan nan nan nan nan nan nan nan nan
279 275 270 269 267 266 261 253 248 254 261 261 261 266 268 272 270 261 255 254 253 256 257 259 nan nan nan 267 271 272 269 267 266 267 265 262 260 261 263 268 271 275 271 268 273 275 277 278 nan nan nan nan nan nan nan nan nan nan nan nan nan nan nan
272 268 267 266 263 261 257 247 246 253 258 258 263 268 272 273 269 nan nan 253 254 257 258 nan nan nan nan nan nan nan nan nan nan nan nan 263 263 264 269 269 269 270 274 276 274 273 274 279 nan nan nan nan nan nan nan nan nan nan nan nan nan nan nan
268 266 265 263 259 258 253 246 244 249 253 255 261 269 274 273 nan nan nan nan nan 258 258 nan nan nan nan nan nan nan nan nan nan nan nan nan 275 270 269 271 269 272 274 274 274 275 278 nan nan nan nan nan nan nan nan nan nan nan nan nan nan nan nan
261 259 259 257 253 252 247 244 243 243 250 257 263 268 272 271 nan nan nan nan nan nan 262 nan nan nan nan nan nan nan nan nan nan nan nan nan nan nan 272 272 273 274 276 276 275 275 nan nan nan nan nan nan nan nan nan nan nan nan nan nan nan nan nan
257 253 253 250 249 246 242 241 241 238 244 255 264 268 271 270 nan nan nan nan nan nan nan 266 nan nan nan nan nan nan nan nan nan nan nan nan nan nan 266 270 272 272 274 276 276 nan nan nan nan nan nan nan nan nan nan nan nan nan nan nan nan nan nan
253 255 250 247 245 247 245 244 244 240 244 252 260 263 266 nan nan nan nan nan nan nan nan nan nan nan nan nan nan nan nan nan nan nan nan nan nan nan 270 268 269 270 270 273 277 276 nan nan nan nan nan nan nan nan nan nan nan nan nan nan nan nan nan
253 251 254 248 252 250 249 249 248 246 nan 249 257 261 266 nan nan nan nan nan nan nan nan nan nan nan nan nan nan nan nan nan nan nan nan nan nan nan nan 272 268 269 271 275 nan nan nan nan nan nan nan nan nan nan nan nan nan nan nan nan nan nan nan
231 255 255 256 258 257 255 253 252 251 nan nan 258 263 266 268 271 nan nan nan nan nan nan nan nan nan nan nan nan nan nan nan nan nan nan nan nan nan nan nan nan 272 270 nan nan nan nan nan nan nan nan nan nan nan nan nan nan nan nan nan nan nan nan
233 228 250 254 259 257 254 254 255 253 254 nan 259 262 265 nan nan nan nan nan nan nan nan nan nan nan nan nan nan nan nan nan nan nan nan nan nan nan nan nan 272 274 271 269 nan 263 264 nan nan nan nan nan nan nan nan nan nan nan nan nan nan nan nan
249 231 232 247 251 253 253 254 257 258 258 nan 260 nan nan 264 nan nan nan nan nan nan nan nan nan nan nan nan nan nan nan nan nan nan nan nan nan nan nan nan nan nan nan 266 264 262 263 nan nan nan nan nan nan nan nan nan nan nan nan nan nan nan nan
244 240 238 246 254 253 254 253 254 256 nan nan nan nan nan nan nan nan nan nan nan nan nan nan nan nan nan nan nan nan nan nan nan nan 273 nan 271 269 nan nan nan nan nan 261 255 255 nan nan nan nan nan nan nan nan nan nan nan nan 293 294 nan nan nan
242 242 244 248 250 255 258 256 257 nan nan nan nan nan nan nan nan nan nan nan nan nan nan nan nan nan nan nan nan nan nan nan nan 278 276 273 271 268 271 271 270 265 261 nan nan nan nan nan 256 260 258 258 261 267 272 269 269 282 nan 287 290 nan nan
244 243 243 246 247 245 249 254 nan nan nan nan nan nan nan nan nan nan nan nan nan nan nan 254 nan nan nan 242 258 nan 274 279 282 281 277 275 271 272 274 278 273 271 nan nan nan nan nan nan nan 258 258 261 260 259 262 268 273 267 268 276 280 282 nan
249 252 249 248 249 249 247 246 246 249 nan nan nan nan nan nan nan nan nan 258 257 258 255 248 nan nan nan nan 239 262 280 281 282 280 277 273 273 274 278 279 280 277 276 nan 272 nan nan nan nan nan nan nan nan nan 262 264 269 276 282 281 275 272 276
249 252 256 nan nan nan nan nan nan 248 252 254 255 254 nan nan nan nan nan nan 259 257 253 nan nan nan nan nan nan 251 263 275 277 275 274 272 271 274 276 278 276 278 278 278 273 280 281 283 nan nan nan nan nan nan nan nan nan 265 267 270 275 282 282
248 249 250 249 nan nan nan nan nan nan nan 254 257 258 nan 252 248 247 248 251 253 253 253 nan nan nan nan nan nan 242 258 264 269 269 265 266 265 270 274 279 281 278 277 282 277 273 275 283 285 284 nan nan nan nan nan nan nan nan nan nan nan 263 268
250 251 nan nan nan nan nan nan nan nan 254 255 258 258 258 256 254 255 256 256 249 245 244 nan nan nan nan nan nan nan 249 250 253 257 261 268 271 270 274 275 277 278 275 278 276 276 274 274 279 281 280 278 277 284 nan nan nan nan nan nan nan nan 270
nan nan nan nan nan nan nan nan nan nan nan 264 264 262 258 256 256 259 258 256 254 249 244 nan nan nan nan nan nan nan 247 248 254 257 252 245 252 271 269 271 274 273 273 279 276 273 273 270 267 270 275 275 276 272 275 278 279 276 278 279 277 278 277
nan nan nan nan nan nan nan nan nan nan nan nan 266 262 259 259 263 264 262 258 256 254 250 nan nan nan nan nan nan nan 257 259 261 264 263 263 nan 266 274 273 269 269 270 270 275 278 266 267 269 269 269 272 273 276 273 270 269 268 nan nan nan 264 265
nan nan nan nan nan nan nan nan nan nan nan nan nan 272 273 272 269 265 259 nan nan 257 256 nan nan nan nan nan nan nan 267 271 272 272 262 265 274 272 271 274 275 275 276 267 258 261 273 267 270 267 266 266 267 270 276 nan 267 nan nan nan nan nan nan
nan nan nan nan nan nan nan 251 252 258 nan nan 276 276 277 272 263 257 254 nan nan 261 259 nan nan nan nan nan nan nan 264 270 270 262 270 272 269 267 266 265 262 265 259 259 267 257 265 273 270 267 265 264 264 268 273 nan nan nan nan nan nan nan nan
nan nan nan nan nan nan nan nan nan nan 253 260 271 271 nan 269 nan nan nan nan nan 257 nan nan nan nan nan nan nan nan nan 260 271 274 266 264 263 265 260 261 nan nan 260 nan 261 264 263 266 269 267 267 267 266 265 266 273 nan nan nan nan nan nan nan
nan nan nan nan nan nan nan nan nan nan nan 261 262 nan nan nan nan nan nan nan nan nan nan nan nan nan nan nan nan nan nan nan 259 258 257 nan nan nan nan nan nan nan nan 257 259 nan nan nan nan 265 265 268 268 265 263 270 273 nan nan nan nan nan nan
nan nan nan nan nan nan nan nan nan nan nan nan nan nan nan nan nan nan nan nan nan nan nan nan nan nan nan nan nan nan nan nan nan nan nan nan nan nan 258 nan nan nan nan nan nan nan nan nan nan nan nan 268 267 267 264 270 nan nan nan nan nan nan nan
nan nan nan nan nan nan nan nan nan nan nan nan nan nan nan nan nan nan nan nan nan nan nan nan nan nan nan nan nan nan nan nan nan nan nan nan nan nan nan nan nan nan nan nan nan nan nan nan nan nan nan 267 265 261 nan 267 nan nan nan nan nan nan nan
nan nan nan nan nan nan nan nan nan nan nan nan nan nan nan nan nan nan nan nan nan nan nan nan nan nan nan nan nan nan nan nan nan nan nan nan nan nan nan nan nan nan nan nan nan nan nan nan nan nan nan 270 271 269 270 274 nan nan nan nan nan nan nan
nan nan nan nan nan nan nan nan nan nan nan nan nan nan nan nan nan nan nan nan nan nan nan nan nan nan nan nan nan nan nan nan nan nan nan nan nan nan nan nan nan nan nan nan nan nan nan nan nan nan nan nan nan 274 275 275 nan nan nan nan nan nan nan